Location: Banska Bystrica
(0.0000°N, 19.1500°E)
Time: 20:49:23
(UTC+02:00)

CZ-2C R/B - Pass Details

Date: 19 February 2019
Orbit: 640 x 705 km, 98.4° (Epoch: 23 October)

Event Time Altitude Azimuth Distance (km) Brightness Sun altitude
Rises 18:13:28 0° 10° (N) 2,961 6.8 -4.0°
Reaches altitude 10° 18:15:39 10° 9° (N) 2,061 6.0 -4.5°
Maximum altitude 18:20:09 82° 282° (WNW) 677 3.9 -5.6°
Drops below altitude 10° 18:24:46 10° 195° (SSW) 2,112 6.7 -6.7°
Sets 18:27:01 0° 194° (SSW) 3,040 7.5 -7.3°
